CW9454 Weather Reports


Display with metric or nautical units.
time (UTC)temp
F
wind
direction
speed
MPH
gust
MPH
rain 1hr
in
rain 24hr
in
rain mn
in
humidity
%
barometer
mb
20260902053031 80 51 0.0 0.0 0.00 0.00 0.00 83 1016.7
20260902052025 80 51 0.0 0.0 0.00 0.00 0.00 82 1016.9
20260902051018 80 51 0.0 0.0 0.00 0.00 0.00 81 1017.1
20260902050026 80 51 0.0 0.0 0.00 0.00 0.00 80 1017.3
20260902045018 80 51 0.0 0.0 0.00 0.00 0.00 80 1016.7
20260902044032 81 51 0.0 0.0 0.00 0.00 0.00 80 1016.8
20260902043047 81 51 0.0 0.0 0.00 0.00 0.00 80 1016.5
20260902042018 81 51 0.0 0.0 0.00 0.00 0.00 80 1016.5
20260902041031 82 51 0.0 0.0 0.00 0.00 0.00 79 1016.5
20260902040017 82 51 0.0 4.0 0.00 0.00 0.00 78 1016.5
20260902035031 83 28 0.0 2.0 0.00 0.00 0.00 78 1016.3
20260902034016 84 257 0.0 0.0 0.00 0.00 0.00 79 1016.1
20260902033026 85 256 0.0 0.0 0.00 0.00 0.00 77 1015.8
20260902032049 85 256 0.0 0.0 0.00 0.00 0.00 76 1015.7
20260902031041 86 256 0.0 1.0 0.00 0.00 0.00 74 1015.4
20260902030026 87 256 0.0 0.0 0.00 0.00 0.00 72 1015.5
20260902025020 87 256 0.0 1.0 0.00 0.00 0.00 69 1015.1
20260902024053 87 256 0.0 2.0 0.00 0.00 0.00 68 1014.7
20260902023025 87 256 0.0 7.0 0.00 0.00 0.00 68 1014.7
20260902022019 87 236 1.0 5.0 0.00 0.00 0.00 67 1014.7
20260902021033 88 244 2.0 7.0 0.00 0.00 0.00 67 1014.7
20260902020020 88 245 3.0 8.0 0.00 0.00 0.00 67 1014.6
20260902015034 88 249 2.0 8.0 0.00 0.00 0.00 67 1014.4
20260902014019 88 266 1.0 9.0 0.00 0.00 0.00 68 1014.2
20260902013014 87 234 2.0 9.0 0.00 0.00 0.00 69 1014.3
20260902012024 87 251 3.0 7.0 0.00 0.00 0.00 69 1014.0
20260902011021 87 248 0.0 4.0 0.00 0.00 0.00 69 1014.0
20260902010026 87 248 0.0 2.0 0.00 0.00 0.00 69 1014.2
20260902005019 88 248 0.0 5.0 0.00 0.00 0.00 69 1014.2
20260902004013 88 240 1.0 4.0 0.00 0.00 0.00 69 1013.9
20260902003027 88 241 0.0 5.0 0.00 0.00 0.00 69 1013.6
20260902002041 88 246 1.0 4.0 0.00 0.00 0.00 68 1013.2
20260902001035 89 245 0.0 1.0 0.00 0.00 0.00 68 1012.9
20260902000037 90 245 0.0 0.0 0.00 0.00 0.00 67 1013.0
20260901235031 90 245 0.0 0.0 0.00 0.00 0.00 66 1013.2
20260901234025 91 245 0.0 0.0 0.00 0.00 0.00 65 1013.2
20260901233018 92 245 0.0 0.0 0.00 0.00 0.00 63 1013.4
20260901232031 93 245 0.0 0.0 0.00 0.00 0.00 62 1013.2
20260901231024 93 245 0.0 1.0 0.00 0.00 0.00 60 1013.4
20260901230030 94 245 0.0 2.0 0.00 0.00 0.00 59 1013.5
20260901225044 95 245 0.0 4.0 0.00 0.00 0.00 58 1013.5
20260901224016 95 249 0.0 7.0 0.00 0.00 0.00 56 1013.4
20260901223029 96 254 1.0 4.0 0.00 0.00 0.00 55 1013.4
20260901222015 97 238 0.0 7.0 0.00 0.00 0.00 54 1013.5
20260901221038 97 251 1.0 7.0 0.00 0.00 0.00 53 1013.5
20260901220025 98 240 0.0 3.0 0.00 0.00 0.00 53 1013.6
20260901215038 98 259 1.0 3.0 0.00 0.00 0.00 51 1013.6
20260901214024 98 275 1.0 2.0 0.00 0.00 0.00 51 1013.5
20260901213038 98 272 0.0 9.0 0.00 0.00 0.00 51 1013.7
20260901212040 98 254 1.0 4.0 0.00 0.00 0.00 52 1013.7
20260901211023 96 296 0.0 3.0 0.00 0.00 0.00 53 1013.9
20260901210038 96 248 0.0 3.0 0.00 0.00 0.00 53 1013.9
20260901205052 96 250 1.0 4.0 0.00 0.00 0.00 54 1014.1
20260901204015 96 254 0.0 5.0 0.00 0.00 0.00 54 1014.0
20260901203028 96 325 0.0 6.0 0.00 0.00 0.00 53 1014.1
20260901202038 96 243 1.0 7.0 0.00 0.00 0.00 53 1014.1
20260901201039 96 268 1.0 5.0 0.00 0.00 0.00 54 1014.2
20260901200026 97 314 0.0 7.0 0.00 0.00 0.00 54 1014.3
20260901195020 97 236 3.0 7.0 0.00 0.00 0.00 52 1014.5
20260901194054 98 291 0.0 9.0 0.00 0.00 0.00 54 1014.5
20260901193026 98 240 3.0 9.0 0.00 0.00 0.00 52 1014.6
20260901192019 99 259 2.0 8.0 0.00 0.00 0.00 52 1014.8
20260901191032 99 338 1.0 5.0 0.00 0.00 0.00 53 1014.8
20260901190019 98 244 0.0 5.0 0.00 0.00 0.00 55 1015.0
20260901185032 98 284 2.0 5.0 0.00 0.00 0.00 55 1015.1
20260901184016 98 311 0.0 8.0 0.00 0.00 0.00 57 1015.1
20260901183031 97 260 0.0 7.0 0.00 0.00 0.00 58 1015.1
20260901182024 96 277 0.0 3.0 0.00 0.00 0.00 61 1015.2
20260901181016 96 278 0.0 4.0 0.00 0.00 0.00 60 1015.2
20260901180023 95 285 0.0 5.0 0.00 0.00 0.00 61 1015.2
20260901175017 93 335 1.0 6.0 0.00 0.00 0.00 62 1015.2
20260901174031 92 297 0.0 4.0 0.00 0.00 0.00 66 1015.4
20260901173025 92 253 1.0 5.0 0.00 0.00 0.00 65 1015.3
20260901172038 92 321 0.0 3.0 0.00 0.00 0.00 64 1015.4
20260901171031 92 294 0.0 3.0 0.00 0.00 0.00 64 1015.3
20260901170020 92 278 1.0 7.0 0.00 0.00 0.00 62 1015.4
20260901165032 93 263 0.0 3.0 0.00 0.00 0.00 63 1015.6
20260901164017 93 248 1.0 6.0 0.00 0.00 0.00 63 1015.5
20260901163032 93 286 1.0 5.0 0.00 0.00 0.00 61 1015.6
20260901162026 94 247 0.0 4.0 0.00 0.00 0.00 61 1015.9
20260901161021 94 245 2.0 9.0 0.00 0.00 0.00 61 1015.9
20260901160023 94 232 1.0 9.0 0.00 0.00 0.00 62 1016.0
20260901155016 93 259 2.0 7.0 0.00 0.00 0.00 62 1016.0
20260901154050 93 269 1.0 5.0 0.00 0.00 0.00 62 1015.9
20260901153043 92 234 2.0 9.0 0.00 0.00 0.00 64 1016.4
20260901152015 92 265 1.0 9.0 0.00 0.00 0.00 64 1016.5
20260901151100 91 227 2.0 9.0 0.00 0.00 0.00 66 1016.4
20260901150025 89 291 1.0 7.0 0.00 0.00 0.00 68 1016.4
20260901145037 88 252 1.0 5.0 0.00 0.00 0.00 72 1016.4
20260901144021 87 285 1.0 9.0 0.00 0.00 0.00 74 1016.6
20260901143015 86 258 1.0 6.0 0.00 0.00 0.00 76 1016.7
20260901142030 85 255 0.0 4.0 0.00 0.00 0.00 75 1016.6
20260901141042 85 272 1.0 6.0 0.00 0.00 0.00 77 1016.5
20260901140037 84 279 1.0 5.0 0.00 0.00 0.00 78 1016.4
20260901135020 83 251 3.0 6.0 0.00 0.00 0.00 81 1016.3
20260901134014 82 273 0.0 5.0 0.00 0.00 0.00 82 1016.3
20260901133027 81 251 3.0 8.0 0.00 0.00 0.00 85 1016.5
20260901132020 80 232 3.0 8.0 0.00 0.00 0.00 88 1016.6
20260901131033 79 239 0.0 7.0 0.00 0.00 0.00 91 1016.6
20260901130041 78 233 2.0 8.0 0.00 0.00 0.00 93 1016.8
20260901125029 78 249 1.0 5.0 0.00 0.00 0.00 94 1016.8
20260901124042 77 248 1.0 5.0 0.00 0.00 0.00 94 1017.0
20260901123015 77 253 0.0 5.0 0.00 0.00 0.00 95 1017.0
20260901122059 76 255 1.0 6.0 0.00 0.00 0.00 95 1016.9
20260901121021 76 269 0.0 4.0 0.00 0.00 0.00 95 1017.2
20260901120037 75 276 0.0 2.0 0.00 0.00 0.00 95 1017.0
20260901115020 75 276 0.0 4.0 0.00 0.00 0.00 94 1016.6
20260901114014 75 344 0.0 1.0 0.00 0.00 0.00 94 1016.7
20260901113028 74 344 0.0 0.0 0.00 0.00 0.00 94 1016.7
20260901112022 74 344 0.0 0.0 0.00 0.00 0.00 94 1016.8
20260901111016 74 344 0.0 2.0 0.00 0.00 0.00 93 1017.0
20260901110023 74 344 0.0 0.0 0.00 0.00 0.00 93 1016.8
20260901105018 74 344 0.0 0.0 0.00 0.00 0.00 93 1016.8
20260901104032 74 344 0.0 0.0 0.00 0.00 0.00 93 1016.7
20260901103016 74 344 0.0 0.0 0.00 0.00 0.00 93 1016.7
20260901102039 74 344 0.0 0.0 0.00 0.00 0.00 93 1016.6
20260901101052 74 344 0.0 0.0 0.00 0.00 0.00 93 1016.6
20260901100037 74 344 0.0 0.0 0.00 0.00 0.00 93 1016.4
20260901095030 75 344 0.0 0.0 0.00 0.00 0.00 93 1016.4
20260901094022 75 344 0.0 0.0 0.00 0.00 0.00 93 1016.3
20260901093038 74 344 0.0 0.0 0.00 0.00 0.00 93 1016.7
20260901092032 75 344 0.0 0.0 0.00 0.00 0.00 93 1016.8
20260901091019 75 344 0.0 0.0 0.00 0.00 0.00 93 1016.9
20260901090033 75 344 0.0 0.0 0.00 0.00 0.00 92 1016.8
20260901085018 75 344 0.0 0.0 0.00 0.00 0.00 92 1016.8
20260901084013 75 344 0.0 0.0 0.00 0.00 0.00 92 1016.7
20260901083027 75 344 0.0 0.0 0.00 0.00 0.00 92 1016.7
20260901082021 75 344 0.0 0.0 0.00 0.00 0.00 92 1016.8
20260901081016 75 344 0.0 0.0 0.00 0.00 0.00 92 1016.6
20260901080021 75 344 0.0 0.0 0.00 0.00 0.00 92 1016.6
20260901075014 75 344 0.0 0.0 0.00 0.00 0.00 92 1016.6
20260901074029 75 344 0.0 0.0 0.00 0.00 0.00 92 1016.7
20260901073013 75 344 0.0 0.0 0.00 0.00 0.00 91 1016.7
20260901072026 75 344 0.0 0.0 0.00 0.00 0.00 91 1016.9
20260901071019 76 344 0.0 0.0 0.00 0.00 0.00 91 1017.1
20260901070026 76 344 0.0 0.0 0.00 0.00 0.00 91 1017.1
20260901065019 76 344 0.0 0.0 0.00 0.00 0.00 91 1017.2
20260901064014 76 344 0.0 0.0 0.00 0.00 0.00 91 1017.3
20260901063028 76 344 0.0 1.0 0.00 0.00 0.00 91 1017.3
20260901062022 76 344 0.0 0.0 0.00 0.00 0.00 91 1017.4
20260901061037 76 344 0.0 0.0 0.00 0.00 0.00 91 1017.4
20260901060024 76 344 0.0 0.0 0.00 0.00 0.00 91 1017.3
20260901055019 77 344 0.0 0.0 0.00 0.00 0.00 91 1017.3
20260901054033 77 344 0.0 0.0 0.00 0.00 0.00 91 1017.6